Location: Le Petit-Vavre
(46.5081°N, 1.5239°E)
Time: 18:34:56
(UTC+00:00)

ATLAS CENTAUR R/B - Pass Details

Date: 03 March 2021
Orbit: 475 x 670 km, 64.7° (Epoch: 30 March)

Event Time Altitude Azimuth Distance (km) Brightness Sun altitude
Rises 18:18:06 0° 185° (S) 2,523 4.8 -6.9°
Reaches altitude 10° 18:20:29 10° 171° (S) 1,640 3.7 -7.3°
Maximum altitude 18:23:27 24° 116° (ESE) 1,024 2.2 -7.8°
Drops below altitude 10° 18:26:27 10° 61° (ENE) 1,654 3.2 -8.3°
Enters shadow 18:27:02 - 57° (ENE) 1,860 3.5 -8.4°
